www.pogodaiklimat.ru

Архив погоды в Гаване (Куба)

Время
(UTC), дата
16 17.01
17 17.01
18 17.01
19 17.01
20 17.01
21 17.01
22 17.01
23 17.01
00 18.01
01 18.01
02 18.01
03 18.01
04 18.01
05 18.01
06 18.01
07 18.01
08 18.01
09 18.01
10 18.01
11 18.01
12 18.01
13 18.01
14 18.01
15 18.01
16 18.01
17 18.01
18 18.01
19 18.01
20 18.01
21 18.01
22 18.01
23 18.01
00 19.01
01 19.01
02 19.01
03 19.01
04 19.01
05 19.01
06 19.01
07 19.01
08 19.01
09 19.01
10 19.01
11 19.01
12 19.01
13 19.01
14 19.01
15 19.01
16 19.01
17 19.01
18 19.01
19 19.01
20 19.01
21 19.01
22 19.01
23 19.01
00 20.01
01 20.01
02 20.01
03 20.01
04 20.01
05 20.01
06 20.01
07 20.01
08 20.01
09 20.01
10 20.01
11 20.01
12 20.01
13 20.01
14 20.01
15 20.01
16 20.01
17 20.01
18 20.01
19 20.01
20 20.01
21 20.01
22 20.01
23 20.01
00 21.01
01 21.01
02 21.01
03 21.01
04 21.01
05 21.01
06 21.01
07 21.01
08 21.01
09 21.01
10 21.01
11 21.01
12 21.01
13 21.01
14 21.01
15 21.01
16 21.01
17 21.01
18 21.01
19 21.01
20 21.01
21 21.01
22 21.01
23 21.01
00 22.01
01 22.01
02 22.01
03 22.01
04 22.01
05 22.01
06 22.01
07 22.01
08 22.01
09 22.01
10 22.01
11 22.01
12 22.01
13 22.01
14 22.01
15 22.01
16 22.01
17 22.01
18 22.01
19 22.01
20 22.01
21 22.01
22 22.01
23 22.01
00 23.01
01 23.01
02 23.01
03 23.01
04 23.01
05 23.01
06 23.01
07 23.01
08 23.01
09 23.01
10 23.01
11 23.01
12 23.01
13 23.01
14 23.01
15 23.01
16 23.01
17 23.01
18 23.01
19 23.01
20 23.01
21 23.01
22 23.01
23 23.01
00 24.01
01 24.01
02 24.01
03 24.01
04 24.01
05 24.01
06 24.01
07 24.01
08 24.01
09 24.01
12 24.01
Ветер
(напр.,м/с)
Видим. Явления Облачность Т
(С)
Тd
(С)
f
(%)
Тe
(С)
Тes
(С)
Комфортность P
(гПа)
Po
(гПа)
Тmin
(С)
Tmax
(С)
R
(мм)
R24
(мм)
S
(см)
С 6 9000 м 5/5 1200 м +24.0 +14.0 54 +26 +28 жарко 1018.0 1010.6
СЗ 6 9000 м 5/5 1350 м +24.0 +13.0 50 +26 +28 жарко 1018.0 1010.6
СЗ 6 10 км мгла 5/5 1080 м
[Cu hum]
+22.9 +13.0 53 +26 +28 жарко 1018.1 1010.4
С 7 9000 м 5/5 1080 м +23.0 +13.0 53 +26 +28 жарко 1017.0 1009.6
С 5 9000 м 5/5 1200 м +24.0 +13.0 50 +26 +29 жарко 1016.0 1008.6
С 6 9000 м 5/5 690 м +24.0 +12.0 47 +26 +27 жарко 1016.0 1008.6
С 5 9000 м 5/5 750 м +23.0 +12.0 50 +26 +26 жарко 1017.0 1009.6
С 4 9000 м 5/5 1350 м +22.0 +13.0 57 +25 +25 комфорт 1017.0 1009.5
С 2 9000 м мгла 6/5 720 м
[Cu hum]
+19.1 +13.0 68 +21 +21 комфорт 1017.9 1010.2
нст 1 9000 м 5/5 1200 м +17.0 +14.0 82 +18 +18 тепло 1018.0 1010.4
нст 1 9000 м 5/5 720 м +15.0 +15.0 100 +15 +15 тепло 1018.0 1010.4
нст 1 9000 м 5/5 900 м +14.0 +14.0 100 +14 +14 тепло 1019.0 1011.3
ЮЗ 1 9000 м 5/5 1170 м +14.0 +14.0 100 +14 +14 тепло 1019.0 1011.3
нст 1 9000 м 5/5 1170 м +15.0 +15.0 100 +15 +15 тепло 1019.0 1011.4
штиль 0 10 км 5/5 1080 м
[Sc]
+14.7 +14.7 100 +15 +15 тепло 1019.4 1011.7
нст 1 9000 м 5/5 1350 м +15.0 +15.0 100 +15 +15 тепло 1019.0 1011.4
нст 1 9000 м 5/5 1200 м +14.0 +14.0 100 +14 +14 тепло 1018.0 1010.3
нст 1 9000 м 5/5 1350 м +14.0 +14.0 100 +14 +14 тепло 1019.0 1011.3
нст 1 9000 м 5/5 1200 м +14.0 +14.0 100 +14 +14 тепло 1019.0 1011.3
нст 1 9000 м 5/5 720 м +13.0 +13.0 100 +13 +13 тепло 1019.0 1011.3
штиль 0 10 км мгла 4/4 1200 м
[Sc]
+12.5 +12.0 94 +13 +13 тепло 1020.0 1012.3
нст 1 9000 м 2/2 1200 м +15.0 +15.0 100 +15 +15 тепло 1021.0 1013.3
нст 1 9000 м 2/2 750 м +17.0 +15.0 88 +18 +19 тепло 1021.0 1013.4
С 2 9000 м 5/5 750 м +22.0 +12.0 53 +24 +26 комфорт 1021.0 1013.5
СВ 4 9000 м 5/5 1200 м +23.0 +13.0 53 +26 +28 жарко 1021.0 1013.5
СВ 5 9000 м 5/5 900 м +24.0 +12.0 47 +26 +28 жарко 1021.0 1013.6
С 4 9000 м мгла 5/5 900 м
[Cu hum]
+24.5 +13.0 47 +27 +31 жарко 1020.5 1012.7
СВ 4 9000 м 5/5 600 м +24.0 +12.0 47 +26 +30 жарко 1019.0 1011.6
СВ 4 9000 м 5/5 750 м +24.0 +12.0 47 +26 +29 жарко 1018.0 1010.6
СВ 5 9000 м 5/5 600 м +24.0 +12.0 47 +26 +27 жарко 1018.0 1010.6
СВ 5 9000 м 5/5 750 м +23.0 +12.0 50 +26 +26 жарко 1018.0 1010.6
СВ 5 9000 м 5/5 750 м +21.0 +13.0 60 +24 +24 комфорт 1019.0 1011.5
СВ 2 9000 м мгла 4/4 750 м
[Cu hum]
+18.8 +13.0 68 +21 +21 комфорт 1020.0 1012.3
В 2 9000 м 5/5 750 м +17.0 +14.0 82 +17 +17 тепло 1020.0 1012.4
ЮВ 2 9000 м 5/5 750 м +15.0 +15.0 100 +15 +15 тепло 1021.0 1013.3
В 2 9000 м 5/5 750 м +16.0 +15.0 94 +16 +16 тепло 1021.0 1013.4
В 2 9000 м 5/5 1350 м +15.0 +14.0 94 +15 +15 тепло 1021.0 1013.3
В 2 9000 м 5/5 750 м +15.0 +14.0 94 +15 +15 тепло 1020.0 1012.3
В 1 9000 м мгла 4/4 1200 м
[Cu hum]
+15.0 +13.0 88 +15 +15 тепло 1020.9 1013.1
нст 1 9000 м 5/5 750 м +13.0 +13.0 100 +13 +13 тепло 1020.0 1012.3
В 1 9000 м 5/5 600 м +13.0 +13.0 100 +13 +13 тепло 1020.0 1012.3
ЮВ 2 9000 м 5/5 1200 м +15.0 +14.0 94 +15 +15 тепло 1019.0 1011.4
В 1 9000 м 5/5 750 м +14.0 +12.0 88 +14 +14 тепло 1019.0 1011.3
В 2 9000 м 5/5 750 м +12.0 +12.0 100 +11 +11 тепло 1020.0 1012.3
В 2 9000 м мгла 1/1 750 м
[Cu hum]
+12.5 +12.0 94 +12 +12 тепло 1020.7 1013.0
В 3 9000 м 2/2 750 м +15.0 +14.0 94 +14 +14 тепло 1021.0 1013.3
В 4 9000 м 2/2 750 м +19.0 +14.0 73 +20 +21 тепло 1021.0 1013.4
В 5 9000 м 2/2 750 м +21.0 +13.0 60 +24 +25 комфорт 1021.0 1013.5
В 5 9000 м 2/2 750 м +23.0 +15.0 61 +27 +30 душно 1021.0 1013.5
В 4 9000 м 2/2 750 м +24.0 +13.0 50 +26 +31 жарко 1021.0 1013.6
В 4 10 км {туман} 4/4 900 м
[Sc]
+24.9 +14.0 50 +27 +31 жарко 1020.4 1012.6
нст 4 9000 м 5/5 900 м +26.0 +14.0 48 +28 +32 жарко 1019.0 1011.6
ЮВ 3 9000 м 5/5 750 м +26.0 +14.0 48 +28 +32 жарко 1018.0 1010.6
ЮВ 3 9000 м 5/5 1050 м +26.0 +15.0 51 +29 +32 душно 1018.0 1010.6
нст 2 9000 м 8/8 1200 м +25.0 +15.0 54 +28 +29 жарко 1018.0 1010.6
СВ 5 9000 м 8/8 1200 м +23.0 +16.0 65 +27 +28 душно 1018.0 1010.6
В 3 9000 м 6/6 1350 м
[Sc]
+22.0 +16.0 69 +26 +26 душно 1018.4 1010.7
В 3 9000 м 8/8 1200 м +20.0 +17.0 83 +23 +23 комфорт 1018.0 1010.5
В 3 9000 м 8/8 1350 м +21.0 +18.0 83 +26 +26 душно 1019.0 1011.5
В 3 9000 м 8/8 1350 м +20.0 +18.0 88 +23 +23 комфорт 1019.0 1011.5
В 2 9000 м 8/8 1200 м +21.0 +18.0 83 +26 +26 душно 1019.0 1011.5
В 3 9000 м 5/5 1200 м +21.0 +18.0 83 +26 +26 душно 1019.0 1011.5
В 3 9000 м 5/5 1350 м
[Sc]
+20.6 +18.0 83 +26 +26 душно 1018.5 1010.8
В 3 9000 м 5/5 1350 м +21.0 +18.0 83 +26 +26 душно 1018.0 1010.5
В 3 9000 м 5/5 1350 м +21.0 +18.0 83 +26 +26 душно 1017.0 1009.5
СВ 2 9000 м 5/5 1200 м +21.0 +19.0 88 +26 +26 душно 1017.0 1009.5
В 2 9000 м 8/2 750 м
[Ac]
+20.0 +20.0 100 +24 +24 комфорт 1017.0 1009.5
В 1 9000 м 8/2 750 м
[Ac]
+20.0 +20.0 100 +25 +25 комфорт 1017.0 1009.5
СВ 1 10 км 8/8 1050 м
[Cu hum As op]
+19.5 +19.5 100 +24 +24 комфорт 1017.9 1010.2
нст 1 9000 м 2/2 900 м +20.0 +19.0 94 +24 +24 комфорт 1018.0 1010.5
нст 1 9000 м 2/2 900 м +24.0 +20.0 78 +29 +30 душно 1019.0 1011.6
ЮВ 3 9000 м 2/2 900 м +25.0 +20.0 74 +31 +33 очень
душно
1019.0 1011.6
ЮВ 3 9000 м 5/5 900 м +27.0 +21.0 70 +34 +37 очень
душно
1019.0 1011.7
Ю 3 9000 м 8/8 900 м +28.0 +21.0 66 +35 +37 очень
душно
1018.0 1010.7
Ю 2 9000 м мгла 8/8 600 м
[Cu med, cong]
+28.0 +20.0 62 +34 +36 очень
душно
1017.9 1010.2
Ю 3 9000 м 8/8 750 м +28.0 +20.0 62 +34 +36 очень
душно
1017.0 1009.7
ЮЗ 3 9000 м 8/8 750 м +28.0 +20.0 62 +34 +36 очень
душно
1016.0 1008.7
С 3 9000 м 8/8 600 м +28.0 +21.0 66 +35 +36 очень
душно
1016.0 1008.7
СВ 3 9000 м 8/8 750 м +26.0 +21.0 74 +33 +33 очень
душно
1016.0 1008.7
В 2 9000 м 5/5 900 м +25.0 +22.0 83 +32 +33 очень
душно
1016.0 1008.7
В 2 10 км {туман} 4/4 900 м
[Cu med, cong]
+23.1 +23.0 100 +32 +32 очень
душно
1016.9 1009.2
В 1 9000 м 5/5 900 м +23.0 +23.0 100 +32 +32 очень
душно
1017.0 1009.6
ЮВ 1 9000 м ясно +22.0 +22.0 100 +29 +29 очень
душно
1017.0 1009.6
нст 1 9000 м 2/2 900 м +21.0 +21.0 100 +28 +28 очень
душно
1018.0 1010.5
ЮЗ 1 9000 м ясно +19.0 +19.0 100 +22 +22 комфорт 1018.0 1010.5
нст 1 2000 м местами туман поземный ясно +19.0 +19.0 100 +22 +22 комфорт 1018.0 1010.5
З 1 4000 м мгла 1/0
[Ci fib]
+18.5 +18.5 100 +22 +22 комфорт 1018.0 1010.3
нст 1 н/о местами туман поземный 2/2 30 м
[Frnb]
+18.0 +18.0 100 +19 +19 тепло 1017.0 1009.5
В 1 5000 м местами туман поземный ясно +17.0 +17.0 100 +18 +18 тепло 1017.0 1009.4
нст 1 5000 м местами туман поземный ясно +16.0 +16.0 100 +17 +17 по сезону 1016.0 1008.4
З 1 н/о туман 2/2 30 м
[Frnb]
+17.0 +17.0 100 +18 +18 тепло 1017.0 1009.4
нст 1 н/о туман 2/2 300 м +17.0 +17.0 100 +18 +18 тепло 1017.0 1009.4
З 1 100 м мгла ?/? +16.2 +16.0 100 +17 +17 тепло 1017.7 1010.0
штиль 0 100 м туман ?/? +17.0 +17.0 100 +17 +17 тепло 1018.0 1010.4
нст 1 100 м туман 2/2 300 м +20.0 +20.0 100 +25 +25 комфорт 1018.0 1010.5
нст 2 9000 м местами туман поземный 2/2 720 м +23.0 +23.0 100 +32 +35 очень
душно
1018.0 1010.6
СВ 2 9000 м 5/5 900 м +26.0 +21.0 74 +33 +36 очень
душно
1019.0 1011.7
нст 1 9000 м 5/5 720 м +28.0 +21.0 66 +35 +41 очень
душно
1018.0 1010.7
З 2 9000 м мгла 6/6 1000 м
[Cu hum]
+27.6 +20.0 62 +34 +37 очень
душно
1017.6 1009.9
С 3 9000 м 8/8 1350 м +28.0 +21.0 66 +35 +37 очень
душно
1016.0 1008.7
нст 2 9000 м 5/5 1200 м +29.0 +21.0 62 +36 +41 очень
душно
1015.0 1007.8
ЮЗ 3 9000 м 5/5 900 м +30.0 +18.0 49 +35 +37 очень
душно
1015.0 1007.8
ЮЗ 3 9000 м 2/2 720 м +29.0 +18.0 51 +33 +36 очень
душно
1015.0 1007.7
ЮЗ 3 9000 м 2/2 900 м +26.0 +18.0 61 +30 +31 душно 1016.0 1008.7
ЮЗ 2 10 км мгла 3/3 720 м
[Cu hum]
+22.2 +18.0 78 +27 +27 душно 1016.8 1009.1
Ю 1 9000 м 2/2 750 м +21.0 +18.0 83 +26 +26 душно 1017.0 1009.5
СЗ 2 9000 м 2/2 900 м +22.0 +21.0 94 +28 +28 душно 1018.0 1010.6
нст 1 9000 м 2/2 900 м +20.0 +20.0 100 +25 +25 комфорт 1018.0 1010.5
нст 1 8000 м 2/2 900 м +19.0 +19.0 100 +22 +22 комфорт 1018.0 1010.5
ЮЗ 1 9000 м 2/2 750 м +18.0 +18.0 100 +19 +19 по сезону 1018.0 1010.5
штиль 0 9000 м мгла 3/3 750 м
[Cu hum]
+18.1 +18.0 100 +19 +19 тепло 1018.4 1010.7
нст 1 9000 м 2/2 900 м +17.0 +17.0 100 +18 +18 тепло 1017.0 1009.4
В 1 8000 м 2/2 720 м +17.0 +17.0 100 +18 +18 тепло 1017.0 1009.4
В 1 7000 м 2/2 900 м +17.0 +17.0 100 +18 +18 тепло 1017.0 1009.4
нст 1 7000 м 2/2 750 м +16.0 +16.0 100 +17 +17 по сезону 1016.0 1008.4
нст 1 8000 м 2/2 900 м +15.0 +15.0 100 +15 +15 по сезону 1017.0 1009.4
штиль 0 8000 м мгла 6/3 900 м
[Cu hum]
+15.2 +15.0 100 +15 +15 по сезону 1018.3 1010.6
ЮВ 1 7000 м 2/2 900 м +17.0 +16.0 94 +18 +18 тепло 1019.0 1011.4
нст 1 9000 м 2/2 900 м +21.0 +21.0 100 +28 +28 очень
душно
1019.0 1011.5
нст 1 9000 м 2/2 750 м +26.0 +21.0 74 +33 +36 очень
душно
1019.0 1011.7
нст 1 9000 м 5/5 900 м +28.0 +20.0 62 +34 +38 очень
душно
1019.0 1011.7
нст 2 9000 м 5/5 750 м +29.0 +19.0 55 +34 +39 очень
душно
1019.0 1011.7
СЗ 3 9000 м мгла 5/0 900 м
[Ac cuf]
+27.8 +20.0 62 +34 +39 очень
душно
1018.1 1010.4
С 3 9000 м 8/8 600 м +29.0 +20.0 58 +35 +37 очень
душно
1016.0 1008.7
С 5 9000 м 8/8 750 м +27.0 +20.0 66 +33 +34 очень
душно
1016.0 1008.7
С 3 9000 м 8/8 600 м +27.0 +20.0 66 +33 +34 очень
душно
1016.0 1008.7
СВ 4 9000 м 8/8 1200 м +26.0 +21.0 74 +33 +33 очень
душно
1016.0 1008.7
СВ 3 9000 м 8/8 1200 м +25.0 +22.0 83 +32 +32 очень
душно
1016.0 1008.7
С 1 9000 м слаб. ливневой дождь, в посл. час гроза {туман} 9/4 540 м
[Cb calv As op]
+24.0 +23.0 94 +32 +32 очень
душно
1017.4 1009.7
С 6 6000 м гроза, ливневой дождь 8/8 540 м
[Cb]
+21.0 +21.0 100 +26 +26 душно 1018.0 1010.5
С 2 8000 м гроза, ливневой дождь 8/8 540 м
[Cb]
+21.0 +21.0 100 +27 +27 душно 1019.0 1011.5
СВ 3 8000 м слаб. дождь 8/8 600 м
[Ns]
+22.0 +21.0 94 +28 +28 душно 1018.0 1010.6
В 4 9000 м 8/8 1200 м +21.0 +21.0 100 +27 +27 душно 1018.0 1010.5
В 3 9000 м 8/8 1200 м +21.0 +21.0 100 +27 +27 душно 1018.0 1010.5
В 2 10 км мгла 9/0 1200 м
[Ac trans]
+20.4 +20.0 100 +24 +24 комфорт 1017.7 1010.0
В 2 9000 м 8/8 750 м +21.0 +21.0 100 +27 +27 душно 1017.0 1009.5
СВ 2 9000 м 8/8 1200 м +21.0 +21.0 100 +27 +27 душно 1016.0 1008.6
В 2 9000 м 8/8 1350 м +21.0 +21.0 100 +27 +27 душно 1016.0 1008.6
нст 1 9000 м 8/8 600 м +20.0 +20.0 100 +25 +25 комфорт 1016.0 1008.5
СВ 4 8000 м слаб. дождь 8/8 540 м
[Ns]
+21.0 +21.0 100 +27 +27 душно 1016.0 1008.6
С 2 8000 м слаб. дождь {туман} 9/3 540 м
[Cu med, cong Ac cuf]
+21.3 +21.0 100 +27 +27 душно 1017.6 1009.9
СВ 4 9000 м 8/8 600 м +21.0 +21.0 100 +27 +27 душно 1018.0 1010.5
СВ 4 9000 м 8/8 600 м +22.0 +21.0 94 +28 +28 душно 1018.0 1010.6
СВ 4 9000 м 8/8 600 м +22.0 +21.0 94 +28 +29 душно 1019.0 1011.6
СВ 5 9000 м 8/8 750 м +21.0 +21.0 100 +26 +27 душно 1019.0 1011.5
С 5 9000 м 8/8 900 м +21.0 +21.0 100 +26 +28 душно 1018.0 1010.5
С 4 10 км мгла 10/5 600 м
[Cu hum As trans]
+21.4 +21.0 100 +26 +26 душно 1018.3 1010.6
С 5 9000 м 8/8 750 м +22.0 +19.0 83 +27 +29 душно 1017.0 1009.6
С 5 9000 м 5/5 750 м +22.0 +18.0 78 +27 +29 душно 1016.0 1008.6
С 6 9000 м 5/5 750 м +23.0 +18.0 73 +28 +30 душно 1016.0 1008.6
С 5 9000 м 5/5 750 м +22.0 +17.0 73 +26 +27 душно 1016.0 1008.6
С 4 9000 м 5/5 750 м +21.0 +17.0 78 +25 +25 комфорт 1016.0 1008.5
С 4 10 км мгла 10/5 750 м
[Cu hum As trans Ci fib]
+20.7 +17.0 78 +25 +25 комфорт 1016.5 1008.8 4
С 3 9000 м 5/5 900 м +20.0 +16.0 78 +23 +23 комфорт 1016.0 1008.5
С 3 9000 м 5/5 750 м +19.0 +15.0 78 +20 +20 по сезону 1017.0 1009.5
С 3 9000 м 5/5 900 м +19.0 +14.0 73 +20 +20 тепло 1017.0 1009.5
С 3 9000 м 2/2 900 м +18.0 +13.0 73 +18 +18 по сезону 1017.0 1009.4
С 1 9000 м 2/2 900 м +15.0 +13.0 88 +15 +15 прохладно 1017.0 1009.4
штиль 0 10 км мгла 3/1 750 м
[Frnb Ci fib]
+13.6 +13.6 100 +14 +14 прохладно 1016.5 1008.8
нст 1 9000 м 2/2 900 м +14.0 +13.0 94 +14 +14 прохладно 1016.0 1008.3
нст 2 9000 м 2/2 900 м +16.0 +16.0 100 +16 +16 по сезону 1015.0 1007.4
нст 1 9000 м 2/2 900 м +14.0 +14.0 100 +14 +14 по сезону 1015.0 1007.4
СЗ 1 9000 м мгла 4/3 900 м
[St As trans]
+12.9 +12.9 100 +13 +13 прохладно 1016.6 1008.9
Местоположение метеостанции Гавана (Куба): широта 22.98 долгота -82.40 высота над уровнем моря 75 м.
В архиве по умолчанию представлена погода в Гаване за последнюю неделю. Архивные данные за месяц целиком и за предыдущие месяцы, начиная с января 2011 года, Вы можете получить, выбрав интересующий диапазон дат из раскрывающегося списка и нажав кнопку "Найти!".
*Определитесь, кто Вы:
Внимание! Время в таблицах - всемирное. Для получения местного времени необходимо прибавить поправку, которая равна -5 ч.
Смотрите также архив погоды в соседних городах и на ближайших метеорологических станциях:
Партнеры нашего сайта:      
Пояснения к столбцам:
  • Ветер - указаны скорость ветра в м/с - средняя за 10 мин, порывы в срок и между сроками (в фигурных скобках) и направление, откуда дует ветер: С - северный,
  • СВ - северо-восточный, В - восточный, ЮВ - юго-восточный, Ю - южный, ЮЗ - юго-западный, З - западный, СЗ - северо-западный.
  • Видимость - горизонтальная дальность видимости в метрах или километрах. При видимости от 1 до 10 км при отсутствии осадков обычно наблюдается дымка, при ухудшении видимости до 1 км и менее - туман. В сухую погоду видимость может ухудшаться дымом, пылью или мглою.
  • Явления - указаны атмосферные явления, наблюдавшиеся в срок или в последний час перед сроком; фигурными скобками обозначены явления, наблюдавшиеся между сроками (за 1-3 часа до срока); квадратными скобками обозначены град или гололедные отложения с указанием их диаметра в мм.
  • Облачность - указаны через наклонную черту общая и нижняя облачность в баллах и высота нижней границы облаков в метрах; квадратными скобками обозначены формы облаков: Ci - перистые, Cs - перисто-слоистые, Cc - перисто-кучевые, Ac - высококучевые, As - высокослоистые, Sc - слоисто-кучевые, Ns - слоисто-дождевые, Cu - кучевые, Cb - кучево-дождевые. Подробнее классификацию облаков см. в Атласе облаков (PDF).
  • T - Температура воздуха - температура, измеренная на высоте 2 м над землей.
  • Td - Температура точки росы - температура, при понижении до которой содержащийся в воздухе водяной пар достигнет насыщения.
  • f - Относительная влажность воздуха - влажноcть воздуха, измеренная на высоте 2 м над землей.
  • Te - Эффективная температура - температура, которую ощущает одетый по сезону человек в тени. Характеристика душности погоды. При расчете учитывается влияние влажности воздуха и скорости ветра на теплоощущения человека.
  • Tes - Эффективная температура на солнце - температура, которую ощущает человек, с поправкой на солнечный нагрев. Характеристика знойности погоды. Зависит от высоты солнца над горизонтом, облачности и скорости ветра. Ночью, в пасмурную погоду, а также при ветре 12 м/с и более поправка равна нулю.
  • P - Атмосферное давление - приведенное к уровню моря атмосферное давление.
  • Po - Атмосферное давление - измеренное на уровне метеостанции атмосферное давление.
  • Tmin - Минимальная температура - минимум температуры воздуха на высоте 2 м над землей.
  • Tmax - Максимальная температура - максимум температуры воздуха на высоте 2 м над землей.
  • R - Количество осадков - Количество выпавших осадков за период времени, мм. При наведении курсора мыши на число - период времени, за который выпало указанное количество осадков.
  • R24 - Количество осадков - Количество выпавших осадков за 24 часа, мм.
  • S - Снежный покров - Высота снежного покрова, см. При наведении курсора мыши на число - состояние снежного покрова и степень покрытия местности в баллах.